Lovelock, NV

8:11 PM PST on February 17, 2018 (GMT -0800)
Derby

Weather History for KLOL - November, 2012

Change the Weather History Date:

Friday, November 2, 2012

  Actual Average Record
Temperature  
Mean Temperature 41 °F -  
Max Temperature 62 °F 59 °F 73 °F (1950)
Min Temperature 21 °F 26 °F 0 °F (2002)
Degree Days  
Heating Degree Days 24    
Moisture  
Dew Point 27 °F    
Average Humidity 60    
Maximum Humidity 85    
Minimum Humidity 30    
Precipitation  
Precipitation 0.00 in - - ()
Sea Level Pressure  
Sea Level Pressure 30.13 in    
Wind  
Wind Speed 2 mph (ENE)    
Max Wind Speed 7 mph    
Max Gust Speed -    
Visibility 10 miles    
Events      
Averages and records for this station are not official NWS values.
T = Trace of Precipitation, MM = Missing Value Source: NWS Daily Summary

Daily Weather History Graph

Daily Weather History Graph

Search for Another Location

Airport or City:

Trip Planner

Search our weather history database for the weather conditions in past years. The results will help you decide how hot, cold, wet, or windy it might be!

Date:

Astronomy

Nov. 02, 2012 Rise Set
Actual Time 7:25 AM PDT 5:49 PM PDT
Civil Twilight 6:57 AM PDT 6:18 PM PDT
Nautical Twilight 6:24 AM PDT 6:50 PM PDT
Astronomical Twilight 5:53 AM PDT 7:21 PM PDT
Moon 8:41 PM PDT (11/2) 10:49 AM PDT (11/2)
Length of Visible Light 11h 21m
Length of Day
10h 24m
Waning Gibbous, 86% of the Moon is Illuminated
Nov 2
Waning Gibbous
Nov 6
Last Quarter
Nov 13
New
Nov 20
First Quarter
Nov 28
Full

Hourly Weather History & Observations

Time (PDT) Temp. Windchill Dew Point Humidity Pressure Visibility Wind Dir Wind Speed Gust Speed Precip Events Conditions
12:53 AM 36.0 °F - 30.0 °F 79% 30.09 in 10.0 mi Calm Calm - N/A   Clear
1:53 AM 33.1 °F 30.0 °F 27.0 °F 78% 30.09 in 10.0 mi East 3.5 mph - N/A   Clear
2:53 AM 26.1 °F 18.4 °F 21.9 °F 84% 30.11 in 10.0 mi SE 6.9 mph - N/A   Clear
3:53 AM 27.0 °F - 21.0 °F 78% 30.11 in 10.0 mi Calm Calm - N/A   Clear
4:53 AM 26.1 °F - 19.9 °F 78% 30.11 in 10.0 mi Calm Calm - N/A   Clear
5:53 AM 21.9 °F - 17.1 °F 82% 30.14 in 10.0 mi Calm Calm - N/A   Clear
6:53 AM 25.0 °F 20.7 °F 21.0 °F 85% 30.16 in 10.0 mi NE 3.5 mph - N/A   Clear
7:53 AM 24.1 °F 19.7 °F 19.0 °F 81% 30.20 in 10.0 mi NNE 3.5 mph - N/A   Clear
8:53 AM 36.0 °F - 28.0 °F 73% 30.18 in 10.0 mi Calm Calm - N/A   Clear
9:53 AM 44.1 °F - 30.0 °F 58% 30.17 in 10.0 mi Calm Calm - N/A   Clear
10:53 AM 51.1 °F - 32.0 °F 48% 30.16 in 10.0 mi Calm Calm - N/A   Clear
11:53 AM 55.0 °F - 32.0 °F 42% 30.14 in 10.0 mi NE 4.6 mph - N/A   Clear
12:53 PM 57.9 °F - 34.0 °F 41% 30.12 in 10.0 mi East 5.8 mph - N/A   Clear
1:53 PM 60.1 °F - 34.0 °F 38% 30.09 in 10.0 mi East 4.6 mph - N/A   Clear
2:53 PM 61.0 °F - 33.1 °F 35% 30.08 in 10.0 mi NNW 3.5 mph - N/A   Clear
3:53 PM 61.0 °F - 28.9 °F 30% 30.09 in 10.0 mi WSW 4.6 mph - N/A   Clear
4:53 PM 59.0 °F - 30.0 °F 33% 30.08 in 10.0 mi Calm Calm - N/A   Clear
5:53 PM 55.0 °F - 33.1 °F 43% 30.10 in 10.0 mi Calm Calm - N/A   Clear
6:53 PM 50.0 °F - 30.9 °F 48% 30.12 in 10.0 mi Calm Calm - N/A   Clear
7:53 PM 46.9 °F - 30.0 °F 52% 30.13 in 10.0 mi Calm Calm - N/A   Clear
8:53 PM 41.0 °F - 26.1 °F 55% 30.13 in 10.0 mi Calm Calm - N/A   Clear
9:53 PM 36.0 °F 31.1 °F 24.1 °F 62% 30.14 in 10.0 mi SSE 5.8 mph - N/A   Clear
10:53 PM 35.1 °F - 27.0 °F 72% 30.14 in 10.0 mi Calm Calm - N/A   Clear
11:53 PM 37.0 °F - 28.0 °F 70% 30.13 in 10.0 mi Calm Calm - N/A   Clear